NWS761 UNNT-UNKL

Flight info

Callsign NWS761
Flight time N/A
Altitude 37000
Route OGATI1L OGATI A308 RISPA A366 KESED A309 ROTLI A300 RANET RANET2Z
Aircraft A321/M-SDE3FGHIRWY/LB1

Departure

Time 2026-05-01 14:44
Airport Novosibirsk Tolmachevo Airport (UNNT)

Arrival

Time N/A
Airport Krasnoyarsk International Airport (UNKL)
Time Latitude Longitude Altitude Speed Heading
2026-05-01 14:15 55.01031 82.67046 373 ft 0 kts 171°
2026-05-01 14:26 55.01064 82.67039 373 ft 3 kts 197°
2026-05-01 14:26 55.01082 82.67050 373 ft 3 kts 231°
2026-05-01 14:27 55.01090 82.67079 373 ft 3 kts 259°
2026-05-01 14:27 55.01094 82.67111 373 ft 3 kts 259°
2026-05-01 14:27 55.01097 82.67143 373 ft 3 kts 259°
2026-05-01 14:28 55.01106 82.67204 373 ft 3 kts 227°
2026-05-01 14:28 55.01122 82.67219 373 ft 3 kts 165°
2026-05-01 14:28 55.01138 82.67207 373 ft 3 kts 161°
2026-05-01 14:28 55.01149 82.67200 373 ft 0 kts 178°
2026-05-01 14:32 55.01111 82.67190 373 ft 10 kts 221°
2026-05-01 14:33 55.01089 82.67060 373 ft 15 kts 261°
2026-05-01 14:33 55.01087 82.66886 373 ft 14 kts 292°
2026-05-01 14:33 55.01095 82.66718 373 ft 14 kts 262°
2026-05-01 14:33 55.01064 82.66563 373 ft 14 kts 247°
2026-05-01 14:34 55.01028 82.66412 373 ft 13 kts 250°
2026-05-01 14:34 55.00998 82.66264 373 ft 13 kts 251°
2026-05-01 14:34 55.00964 82.66121 373 ft 12 kts 244°
2026-05-01 14:34 55.00947 82.65981 373 ft 11 kts 262°
2026-05-01 14:35 55.00936 82.65851 373 ft 11 kts 262°
2026-05-01 14:35 55.00925 82.65730 373 ft 10 kts 260°
2026-05-01 14:35 55.00914 82.65620 373 ft 9 kts 260°
2026-05-01 14:35 55.00903 82.65493 373 ft 14 kts 262°
2026-05-01 14:36 55.00888 82.65327 373 ft 13 kts 261°
2026-05-01 14:36 55.00881 82.65170 373 ft 13 kts 266°
2026-05-01 14:36 55.00871 82.65024 373 ft 12 kts 269°
2026-05-01 14:36 55.00885 82.64891 373 ft 11 kts 282°
2026-05-01 14:37 55.00903 82.64761 373 ft 14 kts 284°
2026-05-01 14:37 55.00925 82.64594 373 ft 14 kts 283°
2026-05-01 14:37 55.00946 82.64434 373 ft 13 kts 282°
2026-05-01 14:37 55.00965 82.64284 373 ft 12 kts 282°
2026-05-01 14:38 55.00982 82.64145 373 ft 11 kts 282°
2026-05-01 14:38 55.00991 82.64079 373 ft 0 kts 282°
2026-05-01 14:38 55.00991 82.64078 373 ft 1 kts 282°
2026-05-01 14:38 55.00997 82.64047 373 ft 3 kts 295°
2026-05-01 14:39 55.01018 82.64013 374 ft 0 kts 336°
2026-05-01 14:41 55.01054 82.64000 374 ft 8 kts 351°
2026-05-01 14:41 55.01095 82.63989 375 ft 5 kts 351°
2026-05-01 14:41 55.01140 82.63998 375 ft 8 kts 36°
2026-05-01 14:41 55.01152 82.64060 375 ft 0 kts 80°
2026-05-01 14:43 55.01165 82.64201 375 ft 41 kts 81°
2026-05-01 14:43 55.01247 82.65120 373 ft 109 kts 81°
2026-05-01 14:43 55.01394 82.66731 376 ft 158 kts 81°
2026-05-01 14:43 55.01571 82.68741 752 ft 171 kts 82°
2026-05-01 14:44 55.01751 82.70831 1316 ft 176 kts 85°
2026-05-01 14:44 55.02139 82.75084 2361 ft 190 kts 87°
2026-05-01 14:44 55.02278 82.77457 2514 ft 208 kts 99°
2026-05-01 14:45 55.02012 82.80091 2726 ft 228 kts 105°
2026-05-01 14:45 55.01390 82.85614 3833 ft 238 kts 104°
2026-05-01 14:45 55.01071 82.88456 4451 ft 240 kts 105°
2026-05-01 14:46 55.00745 82.91345 4947 ft 251 kts 104°
2026-05-01 14:46 55.00039 82.97549 6249 ft 268 kts 104°
2026-05-01 14:46 54.99673 83.00774 6941 ft 275 kts 104°
2026-05-01 14:47 54.99296 83.04070 7639 ft 280 kts 104°
2026-05-01 14:47 54.98911 83.07418 8358 ft 285 kts 104°
2026-05-01 14:47 54.98518 83.10833 9065 ft 290 kts 104°
2026-05-01 14:48 54.97701 83.17892 10195 ft 311 kts 104°
2026-05-01 14:48 54.97256 83.21708 10351 ft 333 kts 104°
2026-05-01 14:48 54.96483 83.29937 11338 ft 351 kts 99°
2026-05-01 14:49 54.95906 83.38495 12598 ft 360 kts 98°
2026-05-01 14:49 54.95314 83.47256 13843 ft 370 kts 98°
2026-05-01 14:50 54.94885 83.53187 14567 ft 376 kts 99°
2026-05-01 14:50 54.93961 83.65323 16076 ft 385 kts 99°
2026-05-01 14:51 54.93602 83.69960 16642 ft 388 kts 99°
2026-05-01 14:51 54.92875 83.79353 17728 ft 396 kts 99°
2026-05-01 14:52 54.92127 83.88913 18718 ft 402 kts 99°
2026-05-01 14:52 54.91747 83.93745 18948 ft 403 kts 99°
2026-05-01 14:52 54.90978 84.03416 19355 ft 406 kts 99°
2026-05-01 14:53 54.90587 84.08274 19860 ft 407 kts 100°
2026-05-01 14:53 54.90193 84.13155 20339 ft 409 kts 100°
2026-05-01 14:53 54.89799 84.18053 20797 ft 410 kts 99°
2026-05-01 14:53 54.89403 84.22980 21239 ft 412 kts 100°
2026-05-01 14:54 54.89002 84.27914 21672 ft 414 kts 100°
2026-05-01 14:54 54.88597 84.32877 22101 ft 416 kts 100°
2026-05-01 14:54 54.88188 84.37859 22522 ft 418 kts 100°
2026-05-01 14:54 54.87774 84.42858 22921 ft 419 kts 100°
2026-05-01 14:55 54.87356 84.47870 23368 ft 420 kts 100°
2026-05-01 14:55 54.86935 84.52906 23751 ft 422 kts 100°
2026-05-01 14:55 54.86512 84.57893 24065 ft 425 kts 99°
2026-05-01 14:55 54.86077 84.62985 24356 ft 429 kts 99°
2026-05-01 14:56 54.85649 84.68121 24674 ft 431 kts 99°
2026-05-01 14:56 54.85301 84.73307 25001 ft 434 kts 97°
2026-05-01 14:56 54.85026 84.78533 25341 ft 436 kts 96°
2026-05-01 14:56 54.84789 84.83804 25675 ft 439 kts 95°
2026-05-01 14:57 54.84566 84.89095 26008 ft 441 kts 95°
2026-05-01 14:57 54.84142 84.99772 26668 ft 446 kts 95°
2026-05-01 14:57 54.83930 85.05152 26999 ft 448 kts 95°
2026-05-01 14:58 54.83717 85.10557 27311 ft 450 kts 95°
2026-05-01 14:58 54.83495 85.15991 27602 ft 453 kts 95°
2026-05-01 14:58 54.83254 85.21462 27896 ft 456 kts 95°
2026-05-01 14:58 54.83010 85.26962 28203 ft 458 kts 95°
2026-05-01 14:59 54.82766 85.32484 28502 ft 461 kts 95°
2026-05-01 14:59 54.82520 85.38037 28801 ft 463 kts 95°
2026-05-01 14:59 54.82274 85.43613 29099 ft 465 kts 95°
2026-05-01 14:59 54.82028 85.49208 29395 ft 467 kts 95°
2026-05-01 15:00 54.81535 85.60502 29963 ft 471 kts 95°
2026-05-01 15:00 54.81290 85.66109 30214 ft 473 kts 94°
2026-05-01 15:00 54.81027 85.71808 30454 ft 475 kts 94°
2026-05-01 15:01 54.80747 85.77529 30693 ft 477 kts 94°
2026-05-01 15:01 54.80466 85.83256 30934 ft 478 kts 94°
2026-05-01 15:01 54.80184 85.89004 31175 ft 479 kts 94°
2026-05-01 15:01 54.79902 85.94761 31396 ft 480 kts 94°
2026-05-01 15:02 54.79621 86.00521 31690 ft 479 kts 94°
2026-05-01 15:02 54.79525 86.02469 31802 ft 479 kts 94°
2026-05-01 15:02 54.79158 86.12002 32327 ft 476 kts 86°
2026-05-01 15:02 54.79666 86.17630 32620 ft 472 kts 71°
2026-05-01 15:03 54.80958 86.22813 32926 ft 466 kts 55°
2026-05-01 15:03 54.82812 86.27368 33255 ft 461 kts 50°
2026-05-01 15:03 54.84722 86.31825 33582 ft 460 kts 50°
2026-05-01 15:03 54.86632 86.36280 33906 ft 459 kts 50°
2026-05-01 15:04 54.88529 86.40716 34204 ft 458 kts 50°
2026-05-01 15:04 54.90422 86.45162 34476 ft 457 kts 50°
2026-05-01 15:04 54.92306 86.49601 34743 ft 455 kts 51°
2026-05-01 15:04 54.94158 86.53979 35006 ft 454 kts 51°
2026-05-01 15:05 54.96026 86.58403 35282 ft 453 kts 51°
2026-05-01 15:05 54.97897 86.62836 35495 ft 454 kts 50°
2026-05-01 15:05 54.99760 86.67262 35723 ft 454 kts 51°
2026-05-01 15:05 55.01623 86.71697 35963 ft 453 kts 51°
2026-05-01 15:06 55.03480 86.76125 36252 ft 451 kts 50°
2026-05-01 15:06 55.05326 86.80532 36526 ft 449 kts 50°
2026-05-01 15:06 55.07168 86.84929 36781 ft 448 kts 50°
2026-05-01 15:06 55.09002 86.89320 36958 ft 448 kts 50°
2026-05-01 15:07 55.10831 86.93715 37053 ft 445 kts 50°
2026-05-01 15:07 55.14457 87.02437 37055 ft 443 kts 50°
2026-05-01 15:08 55.18075 87.11174 37055 ft 443 kts 50°
2026-05-01 15:08 55.21683 87.19917 37063 ft 443 kts 51°
2026-05-01 15:09 55.25261 87.28627 37066 ft 444 kts 50°
2026-05-01 15:09 55.28866 87.37433 37069 ft 445 kts 50°
2026-05-01 15:10 55.32471 87.46264 37072 ft 445 kts 50°
2026-05-01 15:10 55.37880 87.59564 37079 ft 446 kts 50°
2026-05-01 15:11 55.43273 87.72916 37084 ft 446 kts 50°
2026-05-01 15:12 55.46861 87.81841 37106 ft 446 kts 50°
2026-05-01 15:12 55.52224 87.95249 37111 ft 446 kts 50°
2026-05-01 15:14 55.61140 88.17662 37104 ft 448 kts 50°
2026-05-01 15:14 55.66494 88.31225 37101 ft 448 kts 50°
2026-05-01 15:15 55.73592 88.49349 37113 ft 447 kts 50°
2026-05-01 15:16 55.80651 88.67496 37103 ft 447 kts 50°
2026-05-01 15:18 55.89454 88.90304 37107 ft 447 kts 50°
2026-05-01 15:19 55.95971 89.09140 37106 ft 456 kts 64°
2026-05-01 15:19 55.99334 89.25030 37101 ft 456 kts 64°
2026-05-01 15:20 56.01973 89.39402 37106 ft 462 kts 73°
2026-05-01 15:21 56.03236 89.50666 37099 ft 462 kts 74°
2026-05-01 15:21 56.04466 89.61956 37101 ft 463 kts 74°
2026-05-01 15:22 56.06281 89.78955 37091 ft 464 kts 74°
2026-05-01 15:22 56.07499 89.90349 36574 ft 469 kts 74°
2026-05-01 15:23 56.08123 89.96164 35254 ft 483 kts 74°
2026-05-01 15:23 56.08760 90.02142 34137 ft 493 kts 74°
2026-05-01 15:23 56.09379 90.08087 33412 ft 490 kts 75°
2026-05-01 15:23 56.09987 90.14044 32808 ft 484 kts 75°
2026-05-01 15:24 56.10586 90.19950 32195 ft 480 kts 75°
2026-05-01 15:24 56.11182 90.25806 31585 ft 476 kts 75°
2026-05-01 15:24 56.11778 90.31618 30991 ft 472 kts 75°
2026-05-01 15:24 56.12370 90.37377 30401 ft 469 kts 75°
2026-05-01 15:25 56.12955 90.43102 29763 ft 465 kts 75°
2026-05-01 15:25 56.13529 90.48771 29191 ft 459 kts 75°
2026-05-01 15:25 56.14095 90.54370 28622 ft 454 kts 75°
2026-05-01 15:25 56.14651 90.59902 28073 ft 448 kts 75°
2026-05-01 15:26 56.15197 90.65384 27522 ft 443 kts 76°
2026-05-01 15:26 56.15731 90.70796 26988 ft 438 kts 76°
2026-05-01 15:26 56.16256 90.76144 26469 ft 433 kts 76°
2026-05-01 15:26 56.16773 90.81422 25972 ft 427 kts 76°
2026-05-01 15:27 56.17282 90.86625 25485 ft 420 kts 76°
2026-05-01 15:27 56.17781 90.91755 25008 ft 414 kts 76°
2026-05-01 15:27 56.18269 90.96808 24539 ft 408 kts 76°
2026-05-01 15:28 56.19223 91.06725 23594 ft 399 kts 76°
2026-05-01 15:28 56.19692 91.11612 23084 ft 394 kts 76°
2026-05-01 15:28 56.20151 91.16423 22635 ft 388 kts 76°
2026-05-01 15:29 56.21046 91.25864 21699 ft 379 kts 76°
2026-05-01 15:29 56.21483 91.30502 21247 ft 375 kts 76°
2026-05-01 15:29 56.22338 91.39665 20332 ft 369 kts 76°
2026-05-01 15:30 56.23165 91.48623 19427 ft 363 kts 76°
2026-05-01 15:31 56.24795 91.66316 17610 ft 353 kts 77°
2026-05-01 15:31 56.25477 91.74999 16728 ft 349 kts 84°
2026-05-01 15:32 56.25623 91.83621 15903 ft 342 kts 85°
2026-05-01 15:32 56.25713 91.92109 15082 ft 336 kts 86°
2026-05-01 15:33 56.25847 92.04549 13858 ft 330 kts 86°
2026-05-01 15:34 56.25991 92.16757 12606 ft 321 kts 86°